FW4608 Weather Reports


Display with metric or nautical units.
time (UTC)temp
F
wind
direction
speed
MPH
gust
MPH
rain 1hr
in
rain 24hr
in
rain mn
in
humidity
%
barometer
mb
20260510233553 74 197 0.0 0.0 0.00 0.18 0.16 94 1015.4
20260510233050 74 196 0.0 0.0 0.00 0.18 0.16 94 1015.4
20260510232554 74 196 0.0 0.0 0.00 0.18 0.16 94 1015.3
20260510232052 74 196 0.0 0.0 0.00 0.18 0.16 94 1015.3
20260510231547 74 196 0.0 0.0 0.00 0.18 0.16 94 1015.3
20260510231049 74 196 0.0 0.0 0.00 0.18 0.16 94 1015.5
20260510230549 74 186 0.0 0.0 0.00 0.18 0.16 94 1015.4
20260510230046 74 191 0.0 0.0 0.00 0.18 0.16 94 1015.5
20260510225545 73 191 0.0 0.0 0.00 0.19 0.16 94 1015.4
20260510225046 73 191 0.0 1.0 0.00 0.19 0.16 94 1015.4
20260510224549 74 94 0.0 1.0 0.00 0.19 0.16 94 1015.4
20260510224039 74 95 0.0 1.0 0.00 0.19 0.16 94 1015.2
20260510223538 74 106 0.0 1.0 0.00 0.19 0.16 94 1015.3
20260510223040 74 248 0.0 1.0 0.00 0.19 0.16 94 1015.2
20260510222640 74 328 0.0 1.0 0.00 0.19 0.16 94 1015.1
20260510222036 74 139 0.0 1.0 0.00 0.19 0.16 94 1015.1
20260510221046 74 359 0.0 5.0 0.00 0.19 0.16 93 1015.4
20260510220545 74 24 0.0 5.0 0.00 0.19 0.16 93 1015.5
20260510220042 75 116 0.0 2.0 0.00 0.19 0.16 94 1015.6
20260510215540 75 246 0.0 2.0 0.04 0.20 0.16 94 1015.6
20260510215040 75 269 0.0 2.0 0.06 0.20 0.16 94 1015.5
20260510214647 75 302 0.0 2.0 0.08 0.20 0.16 94 1015.6
20260510214042 74 101 0.0 2.0 0.15 0.20 0.16 93 1015.6
20260510213539 74 143 0.0 2.0 0.15 0.20 0.16 94 1015.8
20260510213052 74 97 0.0 2.0 0.15 0.20 0.16 93 1015.9
20260510212538 74 208 0.0 1.0 0.15 0.20 0.16 93 1015.9
20260510212050 74 282 0.0 1.0 0.15 0.20 0.16 93 1015.7
20260510211536 74 54 0.0 1.0 0.15 0.20 0.16 92 1015.4
20260510211147 74 51 0.0 1.0 0.15 0.20 0.16 91 1015.5
20260510210531 74 323 0.0 8.0 0.15 0.20 0.16 90 1015.5
20260510210034 76 115 1.0 8.0 0.15 0.20 0.16 89 1015.5
20260510205530 77 125 0.0 3.0 0.10 0.15 0.11 89 1015.6
20260510205032 78 321 0.0 3.0 0.09 0.14 0.10 88 1015.6
20260510204529 79 102 0.0 1.0 0.06 0.11 0.07 88 1015.2
20260510204028 79 285 0.0 1.0 0.00 0.05 0.01 87 1015.3
20260510203528 80 274 0.0 3.0 0.00 0.05 0.01 86 1015.5
20260510203029 80 325 0.0 4.0 0.00 0.05 0.01 85 1015.3
20260510202528 80 295 0.0 5.0 0.00 0.05 0.01 85 1014.8
20260510202026 80 17 1.0 5.0 0.00 0.05 0.01 86 1014.7
20260510201526 80 92 0.0 2.0 0.00 0.05 0.01 86 1014.5
20260510201028 79 117 0.0 4.0 0.00 0.05 0.01 86 1015.0
20260510200523 79 311 0.0 4.0 0.00 0.05 0.01 85 1015.5
20260510200023 80 196 1.0 4.0 0.00 0.05 0.01 85 1015.2
20260510195521 80 295 0.0 4.0 0.00 0.15 0.01 84 1015.0
20260510195021 81 139 1.0 4.0 0.00 0.15 0.01 83 1015.1
20260510194523 82 306 0.0 4.0 0.00 0.15 0.01 83 1015.2
20260510194022 83 120 1.0 6.0 0.00 0.15 0.01 82 1015.3
20260510193524 84 281 1.0 6.0 0.00 0.15 0.01 80 1015.0
20260510193018 86 308 1.0 5.0 0.00 0.15 0.01 76 1015.1
20260510192521 87 313 1.0 4.0 0.00 0.15 0.01 73 1015.2
20260510192021 87 273 0.0 1.0 0.00 0.15 0.01 73 1015.0
20260510191521 88 70 0.0 1.0 0.00 0.15 0.01 74 1014.9
20260510191013 88 98 0.0 1.0 0.00 0.15 0.01 72 1014.9
20260510190516 88 142 0.0 1.0 0.00 0.15 0.01 73 1015.1
20260510190026 87 141 0.0 2.0 0.00 0.15 0.01 71 1015.0
20260510185517 87 192 0.0 2.0 0.00 0.17 0.01 73 1015.0
20260510185015 87 224 0.0 1.0 0.00 0.17 0.01 74 1015.1
20260510184511 87 250 0.0 2.0 0.00 0.17 0.01 74 1015.1
20260510184012 87 79 0.0 4.0 0.00 0.17 0.01 75 1015.1
20260510183512 87 238 0.0 3.0 0.00 0.17 0.01 74 1015.1
20260510183012 86 162 0.0 3.0 0.00 0.17 0.01 74 1015.4
20260510182515 86 241 1.0 6.0 0.00 0.17 0.01 73 1015.4
20260510182018 87 238 2.0 6.0 0.00 0.17 0.01 73 1015.4
20260510181515 87 240 3.0 6.0 0.00 0.17 0.01 76 1015.4
20260510181004 87 219 2.0 7.0 0.00 0.17 0.01 75 1015.4
20260510180504 88 231 3.0 7.0 0.00 0.17 0.01 78 1015.4
20260510180004 88 263 1.0 6.0 0.00 0.17 0.01 76 1015.5
20260510175502 89 226 1.0 5.0 0.00 0.17 0.01 76 1015.6
20260510175001 89 110 0.0 3.0 0.00 0.17 0.01 73 1015.7
20260510174506 89 307 0.0 3.0 0.00 0.17 0.01 73 1015.7
20260510174016 89 136 0.0 3.0 0.00 0.17 0.01 76 1015.7
20260510173514 88 340 0.0 2.0 0.00 0.17 0.01 77 1015.7
20260510173013 87 248 0.0 3.0 0.00 0.17 0.01 78 1015.8
20260510172627 87 330 0.0 3.0 0.00 0.17 0.01 79 1015.8
20260510172006 87 338 0.0 3.0 0.00 0.17 0.01 81 1015.9
20260510171525 86 115 1.0 3.0 0.00 0.17 0.01 82 1016.0
20260510171001 85 265 0.0 2.0 0.00 0.17 0.01 82 1016.1
20260510170503 85 217 0.0 5.0 0.00 0.17 0.01 84 1016.2
20260510170104 84 124 1.0 5.0 0.00 0.17 0.01 84 1016.3
20260510165604 83 317 0.0 5.0 0.00 0.17 0.01 84 1016.5
20260510165055 83 250 1.0 5.0 0.00 0.17 0.01 85 1016.6
20260510164553 82 229 1.0 5.0 0.00 0.17 0.01 87 1016.6
20260510164052 82 289 1.0 6.0 0.00 0.17 0.01 86 1016.7
20260510163553 82 240 2.0 6.0 0.00 0.17 0.01 86 1016.7
20260510163055 82 281 0.0 4.0 0.00 0.17 0.01 87 1016.8
20260510162548 81 255 1.0 4.0 0.00 0.17 0.01 87 1016.8
20260510162043 81 321 0.0 3.0 0.00 0.17 0.01 88 1016.9
20260510161546 80 268 0.0 2.0 0.00 0.17 0.01 88 1016.9
20260510161040 79 321 0.0 4.0 0.01 0.17 0.01 89 1017.1
20260510160539 79 250 2.0 4.0 0.01 0.17 0.01 88 1017.2
20260510160043 79 219 0.0 3.0 0.01 0.17 0.01 89 1017.0
20260510155529 79 236 0.0 3.0 0.01 0.17 0.01 90 1016.9
20260510155030 78 238 0.0 1.0 0.01 0.17 0.01 91 1016.9
20260510154542 77 231 0.0 1.0 0.01 0.17 0.01 91 1016.9
20260510154024 77 259 0.0 2.0 0.01 0.17 0.01 91 1016.9
20260510153523 77 259 0.0 1.0 0.01 0.17 0.01 92 1016.9
20260510153041 77 248 0.0 1.0 0.01 0.17 0.01 92 1016.8
20260510152524 77 274 0.0 1.0 0.01 0.17 0.01 92 1016.7
20260510152020 77 228 0.0 4.0 0.01 0.17 0.01 93 1016.8
20260510151533 76 256 0.0 4.0 0.01 0.17 0.01 93 1016.8
20260510151015 77 266 0.0 2.0 0.00 0.16 0.00 94 1016.9
20260510150614 76 235 0.0 2.0 0.00 0.16 0.00 95 1016.8
20260510150007 76 243 0.0 1.0 0.00 0.16 0.00 95 1016.9
20260510145508 75 199 0.0 2.0 0.00 0.16 0.00 95 1016.9
20260510145007 75 235 0.0 2.0 0.00 0.16 0.00 95 1016.8
20260510144521 74 242 0.0 2.0 0.00 0.16 0.00 95 1016.7
20260510144054 74 220 0.0 2.0 0.00 0.16 0.00 95 1016.6
20260510144003 74 222 0.0 2.0 0.00 0.16 0.00 95 1016.7
20260510143556 74 216 0.0 1.0 0.00 0.16 0.00 95 1016.7
20260510143058 74 243 0.0 2.0 0.00 0.16 0.00 95 1016.6
20260510142553 74 251 0.0 1.0 0.00 0.16 0.00 95 1016.7
20260510142051 74 233 0.0 1.0 0.00 0.16 0.00 95 1016.5
20260510141552 74 233 0.0 1.0 0.00 0.16 0.00 95 1016.5
20260510141008 74 198 0.0 1.0 0.00 0.16 0.00 95 1016.6
20260510140557 74 160 0.0 1.0 0.00 0.16 0.00 95 1016.6
20260510140501 74 235 0.0 1.0 0.00 0.16 0.00 95 1016.6
20260510140058 74 300 0.0 1.0 0.00 0.16 0.00 95 1016.6
20260510135603 74 277 0.0 1.0 0.00 0.16 0.00 96 1016.5
20260510135102 74 187 0.0 1.0 0.00 0.16 0.00 96 1016.4
20260510134553 74 140 0.0 3.0 0.00 0.16 0.00 96 1016.4
20260510134053 74 243 0.0 3.0 0.00 0.16 0.00 96 1016.4
20260510133546 74 223 0.0 3.0 0.00 0.16 0.00 96 1016.4
20260510133047 73 241 0.0 3.0 0.00 0.16 0.00 96 1016.4
20260510132544 73 240 0.0 1.0 0.00 0.16 0.00 96 1016.3
20260510132043 73 240 0.0 1.0 0.00 0.16 0.00 96 1016.3
20260510131541 73 250 0.0 1.0 0.00 0.16 0.00 96 1016.2
20260510131142 73 250 0.0 1.0 0.00 0.16 0.00 96 1016.1
20260510130529 73 270 0.0 1.0 0.00 0.16 0.00 96 1016.0
20260510130031 73 270 0.0 2.0 0.00 0.16 0.00 96 1015.9
20260510125623 74 239 0.0 2.0 0.00 0.16 0.00 96 1016.0
20260510125023 74 221 0.0 0.0 0.00 0.16 0.00 96 1015.8
20260510124520 73 222 0.0 1.0 0.00 0.16 0.00 96 1015.7
20260510124015 73 347 0.0 1.0 0.00 0.16 0.00 96 1015.7
20260510123515 73 347 0.0 1.0 0.00 0.16 0.00 96 1015.6
20260510123003 73 347 0.0 0.0 0.00 0.16 0.00 96 1015.5
20260510122553 72 347 0.0 0.0 0.00 0.16 0.00 96 1015.5
20260510122049 72 347 0.0 0.0 0.00 0.16 0.00 96 1015.5
20260510121549 71 347 0.0 0.0 0.00 0.16 0.00 96 1015.5
20260510121048 71 347 0.0 0.0 0.00 0.16 0.00 96 1015.4
20260510120546 71 347 0.0 0.0 0.00 0.16 0.00 96 1015.3
20260510120042 71 347 0.0 0.0 0.00 0.16 0.00 96 1015.2
20260510115541 71 347 0.0 0.0 0.00 0.16 0.00 96 1015.1
20260510115041 71 347 0.0 0.0 0.00 0.16 0.00 96 1015.1
20260510114538 70 347 0.0 0.0 0.00 0.16 0.00 96 1015.1
20260510114037 70 347 0.0 0.0 0.00 0.16 0.00 96 1015.0
20260510113536 70 347 0.0 0.0 0.00 0.16 0.00 96 1015.0
20260510113034 70 347 0.0 0.0 0.00 0.16 0.00 96 1014.9
20260510112538 70 347 0.0 0.0 0.00 0.16 0.00 96 1014.9
20260510112035 70 347 0.0 0.0 0.00 0.16 0.00 95 1014.6
20260510111535 70 347 0.0 0.0 0.00 0.16 0.00 95 1014.7
20260510111031 69 347 0.0 0.0 0.00 0.16 0.00 95 1014.6
20260510110530 69 347 0.0 0.0 0.00 0.16 0.00 95 1014.6
20260510110032 69 347 0.0 0.0 0.00 0.16 0.00 95 1014.4
20260510105527 69 347 0.0 0.0 0.00 0.16 0.00 95 1014.3
20260510105029 69 347 0.0 0.0 0.00 0.16 0.00 95 1014.3
20260510104536 69 347 0.0 0.0 0.00 0.16 0.00 95 1014.2
20260510104025 69 347 0.0 0.0 0.00 0.16 0.00 95 1014.3
20260510103632 69 347 0.0 0.0 0.00 0.16 0.00 95 1014.3
20260510103023 69 347 0.0 0.0 0.00 0.16 0.00 95 1014.2
20260510102523 69 347 0.0 0.0 0.00 0.16 0.00 95 1014.1
20260510102026 69 347 0.0 0.0 0.00 0.16 0.00 95 1014.0
20260510101524 69 347 0.0 0.0 0.00 0.16 0.00 95 1014.1
20260510101023 69 347 0.0 0.0 0.00 0.16 0.00 95 1014.1
20260510100523 70 347 0.0 0.0 0.00 0.16 0.00 95 1014.0
20260510100020 70 347 0.0 0.0 0.00 0.16 0.00 95 1014.0
20260510095531 70 347 0.0 0.0 0.00 0.16 0.00 95 1013.9
20260510095021 70 347 0.0 0.0 0.00 0.16 0.00 95 1013.9
20260510094519 69 347 0.0 0.0 0.00 0.16 0.00 95 1013.8
20260510094017 69 347 0.0 0.0 0.00 0.16 0.00 95 1013.8
20260510093519 70 347 0.0 0.0 0.00 0.16 0.00 95 1013.6
20260510093016 70 347 0.0 0.0 0.00 0.16 0.00 95 1013.6
20260510092516 70 347 0.0 0.0 0.00 0.16 0.00 95 1013.5
20260510092018 70 347 0.0 0.0 0.00 0.16 0.00 95 1013.6
20260510091016 70 347 0.0 0.0 0.00 0.16 0.00 95 1013.4
20260510090115 70 347 0.0 0.0 0.00 0.16 0.00 95 1013.3
20260510085511 70 347 0.0 0.0 0.00 0.16 0.00 95 1013.2
20260510085010 70 347 0.0 0.0 0.00 0.16 0.00 95 1013.2
20260510084525 70 347 0.0 0.0 0.00 0.16 0.00 95 1013.1
20260510084010 70 347 0.0 0.0 0.00 0.16 0.00 95 1013.1
20260510083520 70 347 0.0 0.0 0.00 0.16 0.00 95 1013.0
20260510083012 70 347 0.0 0.0 0.00 0.16 0.00 95 1013.0
20260510082506 70 347 0.0 0.0 0.00 0.16 0.00 95 1013.0
20260510082059 70 347 0.0 0.0 0.00 0.16 0.00 95 1012.9
20260510082001 70 347 0.0 0.0 0.00 0.16 0.00 95 1012.9
20260510081618 70 347 0.0 0.0 0.00 0.16 0.00 95 1013.0
20260510081501 70 347 0.0 0.0 0.00 0.16 0.00 95 1013.0
20260510081101 70 347 0.0 0.0 0.00 0.16 0.00 95 1013.0
20260510080558 70 347 0.0 0.0 0.00 0.16 0.00 95 1013.0
20260510080105 70 347 0.0 0.0 0.00 0.16 0.00 95 1013.2
20260510075558 70 347 0.0 0.0 0.00 0.16 0.00 95 1013.1
20260510075056 70 347 0.0 0.0 0.00 0.16 0.00 95 1013.0
20260510074556 70 347 0.0 0.0 0.00 0.16 0.00 95 1013.0
20260510074058 70 347 0.0 0.0 0.00 0.16 0.00 95 1013.0
20260510073556 69 347 0.0 0.0 0.00 0.16 0.00 95 1013.0
20260510073101 70 347 0.0 0.0 0.00 0.16 0.00 95 1012.9
20260510072552 69 347 0.0 0.0 0.00 0.16 0.00 95 1012.9
20260510072052 70 347 0.0 0.0 0.00 0.16 0.00 95 1012.9
20260510071552 70 347 0.0 0.0 0.00 0.16 0.00 95 1012.7
20260510071051 70 347 0.0 0.0 0.00 0.16 0.00 95 1012.7
20260510070548 70 347 0.0 0.0 0.00 0.16 0.00 95 1012.6
20260510070047 70 347 0.0 0.0 0.00 0.16 0.00 95 1012.7
20260510065548 70 347 0.0 0.0 0.00 0.16 0.00 95 1012.7
20260510065045 70 347 0.0 0.0 0.00 0.16 0.00 95 1012.8
20260510064551 70 347 0.0 0.0 0.00 0.16 0.00 95 1012.9
20260510064044 70 347 0.0 0.0 0.00 0.16 0.00 95 1012.9
20260510063541 70 347 0.0 0.0 0.00 0.16 0.00 95 1013.1
20260510063040 70 347 0.0 0.0 0.00 0.16 0.00 95 1013.0
20260510062547 70 347 0.0 1.0 0.00 0.16 0.00 95 1013.0
20260510062039 70 347 0.0 1.0 0.00 0.16 0.00 95 1013.1
20260510061540 70 347 0.0 1.0 0.00 0.16 0.00 95 1013.1
20260510061037 70 92 0.0 0.0 0.00 0.16 0.00 95 1013.1
20260510060537 70 92 0.0 0.0 0.00 0.16 0.00 95 1013.3
20260510060039 70 92 0.0 0.0 0.00 0.16 0.00 95 1013.3
20260510055533 70 92 0.0 0.0 0.00 0.16 0.00 95 1013.4
20260510055030 70 92 0.0 0.0 0.00 0.16 0.00 95 1013.5
20260510054529 70 92 0.0 0.0 0.00 0.16 0.00 95 1013.5
20260510054026 70 92 0.0 0.0 0.00 0.16 0.00 95 1013.6
20260510053534 70 92 0.0 0.0 0.00 0.16 0.00 95 1013.6
20260510053030 70 92 0.0 0.0 0.00 0.16 0.00 95 1013.7
20260510052537 70 92 0.0 0.0 0.00 0.16 0.00 95 1013.8
20260510052024 70 92 0.0 0.0 0.00 0.16 0.00 95 1013.9
20260510051519 70 92 0.0 0.0 0.00 0.16 0.00 95 1014.0
20260510051018 70 92 0.0 0.0 0.00 0.16 0.00 95 1014.2
20260510050515 70 92 0.0 0.0 0.00 0.16 0.00 95 1014.3
20260510050016 70 92 0.0 0.0 0.00 0.16 0.00 95 1014.4
20260510045516 70 92 0.0 0.0 0.00 0.17 0.00 95 1014.4
20260510045015 70 92 0.0 0.0 0.00 0.17 0.00 95 1014.5
20260510044513 70 92 0.0 0.0 0.00 0.17 0.00 95 1014.4
20260510044016 70 92 0.0 0.0 0.00 0.17 0.00 95 1014.4
20260510043514 70 92 0.0 0.0 0.00 0.17 0.00 95 1014.4
20260510043011 70 92 0.0 0.0 0.00 0.17 0.00 95 1014.4
20260510042511 70 92 0.0 0.0 0.00 0.17 0.00 95 1014.4
20260510042010 70 92 0.0 0.0 0.00 0.17 0.00 95 1014.4
20260510041615 70 92 0.0 0.0 0.00 0.17 0.00 95 1014.5
20260510041013 70 92 0.0 0.0 0.00 0.17 0.00 95 1014.4
20260510040505 70 92 0.0 0.0 0.00 0.17 0.00 95 1014.4
20260510040005 70 92 0.0 0.0 0.00 0.19 0.17 95 1014.5
20260510035502 70 92 0.0 0.0 0.00 0.19 0.17 95 1014.4
20260510035002 70 92 0.0 0.0 0.00 0.19 0.17 95 1014.4
20260510034503 70 92 0.0 0.0 0.00 0.19 0.17 95 1014.4
20260510034001 71 92 0.0 0.0 0.00 0.19 0.17 95 1014.5
20260510033504 71 92 0.0 0.0 0.00 0.19 0.17 95 1014.5
20260510033103 71 92 0.0 0.0 0.00 0.19 0.17 95 1014.4
20260510032601 71 92 0.0 1.0 0.00 0.19 0.17 95 1014.6
20260510032059 71 92 0.0 1.0 0.00 0.19 0.17 95 1014.7
20260510031658 71 309 0.0 0.0 0.00 0.19 0.17 95 1014.6
20260510031058 71 309 0.0 0.0 0.00 0.19 0.17 95 1014.7
20260510030556 71 309 0.0 0.0 0.00 0.19 0.17 95 1014.6
20260510030058 71 309 0.0 0.0 0.00 0.19 0.17 95 1014.6
20260510030004 71 309 0.0 0.0 0.00 0.19 0.17 95 1014.6
20260510025557 71 309 0.0 0.0 0.00 0.19 0.17 95 1014.4
20260510025055 71 309 0.0 0.0 0.00 0.19 0.17 95 1014.3
20260510024554 71 309 0.0 0.0 0.00 0.19 0.17 95 1014.4
20260510024156 71 309 0.0 0.0 0.00 0.19 0.17 95 1014.4
20260510023556 71 309 0.0 0.0 0.00 0.19 0.17 95 1014.2
20260510023052 71 309 0.0 0.0 0.00 0.19 0.17 95 1014.1
20260510022551 71 309 0.0 0.0 0.00 0.19 0.17 95 1013.9
20260510022050 71 309 0.0 0.0 0.00 0.19 0.17 95 1013.9
20260510021552 71 309 0.0 0.0 0.00 0.19 0.17 95 1013.7
20260510021051 71 309 0.0 0.0 0.00 0.19 0.17 95 1013.8
20260510020659 71 309 0.0 0.0 0.00 0.19 0.17 95 1013.9
20260510020047 71 309 0.0 0.0 0.00 0.19 0.17 95 1013.7
20260510015547 71 309 0.0 0.0 0.00 0.19 0.17 95 1013.5
20260510015047 71 309 0.0 0.0 0.00 0.19 0.17 95 1013.4
20260510014546 71 309 0.0 0.0 0.00 0.19 0.17 95 1013.4
20260510014045 71 309 0.0 0.0 0.00 0.19 0.17 95 1013.3
20260510013547 71 309 0.0 0.0 0.00 0.19 0.17 95 1013.1
20260510013049 71 309 0.0 0.0 0.00 0.19 0.17 95 1013.3
20260510012547 71 309 0.0 0.0 0.00 0.19 0.17 95 1013.1
20260510012142 71 309 0.0 0.0 0.00 0.19 0.17 95 1013.2
20260510011542 71 309 0.0 0.0 0.00 0.19 0.17 95 1013.2
20260510011046 71 309 0.0 0.0 0.01 0.19 0.17 95 1013.0
20260510010537 71 309 0.0 0.0 0.01 0.19 0.17 95 1013.0
20260510010037 71 309 0.0 0.0 0.01 0.19 0.17 95 1013.1
20260510005537 71 309 0.0 0.0 0.02 0.19 0.17 95 1013.1
20260510005039 71 309 0.0 0.0 0.02 0.19 0.17 95 1012.9
20260510004533 71 309 0.0 0.0 0.02 0.19 0.17 95 1013.1
20260510004037 71 309 0.0 0.0 0.02 0.19 0.17 95 1012.9
20260510003537 71 309 0.0 0.0 0.02 0.19 0.17 95 1012.9
20260510003033 71 309 0.0 0.0 0.02 0.19 0.17 95 1013.1
20260510002532 71 309 0.0 0.0 0.02 0.19 0.17 95 1013.2
20260510002035 71 309 0.0 0.0 0.02 0.19 0.17 95 1013.3
20260510001531 71 309 0.0 0.0 0.02 0.19 0.17 95 1013.3
20260510001030 71 309 0.0 0.0 0.01 0.18 0.16 95 1013.5
20260510000531 71 309 0.0 0.0 0.01 0.18 0.16 95 1013.5
20260510000029 71 309 0.0 0.0 0.01 0.18 0.16 95 1013.4
20260509235531 71 309 0.0 0.0 0.00 0.17 0.15 94 1013.5
20260509235028 71 309 0.0 0.0 0.00 0.17 0.15 94 1013.5
20260509234536 71 309 0.0 1.0 0.00 0.17 0.15 94 1013.5
20260509234027 71 309 0.0 1.0 0.00 0.17 0.15 94 1013.3